Voltar ao catálogo

CZ-6A DEB

AtivoSSO
NORAD 54925·DEBRIS·🇨🇳 China

Lançado Nov 11, 2022 de Taiyuan Satellite Launch Center

Loading…

Próximas Passagens (próximas 24 horas)

TLE

AtualizadoSource: Space-Track

Época: Sep 14, 2026, 11:07 UTC

1 54925U 22151RN  26257.46336005  .00000681  00000-0  38125-3 0  9992
2 54925  98.8399 261.7824 0042244  71.5963 288.9796 14.13553367197307

Acompanhe CZ-6A DEB em tempo real com AllMySat

Download on the App Store